Temperature
18 18 18 18 18 18 18 18 18 18 17 17 16 16 16 15 15 14 14 14 14 14 14 14 14 14 14 14 14 14 14 14 14 14 15 15 15 16 16 16 16 16 16
18 18 18 18 18 18 18 18 17 17 17 16 16 15 15 14 14 13 13 13 13 13 13 13 13 13 14 14 14 14 14 14 14 14 14 14 15 16 16 16 16 16 16
18 18 18 18 18 18 18 17 17 17 16 16 15 15 14 14 13 13 12 12 12 12 12 12 12 13 13 13 13 13 13 13 14 13 13 14 14 15 16 16 16 16 16
19 19 19 19 18 18 18 17 17 16 16 15 15 14 14 13 12 12 12 12 11 11 11 11 12 12 12 13 13 13 13 13 13 13 13 13 13 13 14 15 15 15 16
19 19 19 19 19 18 18 17 17 16 16 15 14 14 13 12 12 12 11 11 11 11 11 11 11 11 11 12 12 12 12 12 13 13 13 13 13 13 13 14 15 15 15
19 19 19 19 19 18 18 17 17 16 15 15 14 13 13 12 12 11 11 11 11 11 10 10 10 10 11 11 11 12 12 12 12 12 12 12 13 12 12 13 13 14 15
20 19 19 19 19 19 18 18 17 16 15 14 14 13 12 12 11 11 11 10 10 10 10 10 10 10 10 10 11 11 11 11 12 12 12 12 12 12 12 12 13 13 15
20 20 20 19 19 19 18 17 17 16 15 14 13 12 12 11 11 11 10 10 10 10 10 10 9 9 9 9 10 10 10 11 11 11 11 12 12 12 12 12 12 12 13
20 20 20 19 19 18 18 17 16 15 14 13 13 12 12 11 11 11 10 10 10 10 9 9 9 9 9 9 9 9 9 10 10 10 11 11 11 11 12 12 12 11 12
20 20 20 19 19 18 17 16 16 15 14 13 13 12 12 11 11 11 10 10 10 10 9 9 9 9 9 9 8 8 8 9 9 9 10 10 10 11 11 11 11 11 11
20 20 20 19 18 18 17 16 15 14 13 13 12 12 11 11 11 10 10 10 10 9 9 9 9 9 9 9 8 8 8 8 8 8 9 9 9 10 10 11 11 11 11
20 20 19 19 18 17 16 15 15 14 13 13 12 12 11 11 11 10 10 10 9 9 9 9 9 9 9 8 8 8 8 8 8 8 8 8 9 9 10 10 10 11 11
20 20 19 18 18 17 16 15 14 13 13 12 12 11 11 11 10 10 10 9 9 9 9 9 8 8 8 8 8 8 8 8 8 8 8 8 8 8 9 9 10 10 10
20 19 19 18 17 16 15 15 14 13 13 12 12 11 11 10 10 10 9 9 9 9 9 8 8 8 8 8 8 8 8 8 8 8 8 8 7 8 8 8 9 9 10
20 19 19 18 17 16 15 14 14 13 12 12 11 11 10 10 10 9 9 9 9 8 8 8 8 8 8 8 8 8 8 8 8 8 8 8 7 7 7 8 8 9 9
20 19 18 18 17 16 15 14 13 13 12 11 11 10 10 10 9 9 9 9 9 8 8 8 7 7 7 8 7 7 7 7 7 8 8 8 7 7 7 7 7 8 8
20 19 18 17 16 15 15 14 13 12 12 11 11 10 10 9 9 9 8 8 8 8 8 7 7 7 8 8 7 7 7 7 7 7 8 8 8 7 7 7 7 7 8
19 19 18 17 16 15 14 14 13 12 12 11 10 10 9 9 9 8 8 8 8 7 7 7 7 7 8 8 7 7 7 7 7 7 7 7 7 7 7 7 6 7 7
19 19 18 17 16 15 14 14 13 12 11 11 10 9 9 8 8 8 8 7 7 7 7 7 7 7 8 8 7 7 7 7 7 7 7 7 7 7 7 6 6 6 7
19 19 18 17 16 15 14 14 13 12 11 11 10 9 8 8 8 8 7 7 7 7 7 7 7 7 8 8 7 7 7 7 7 6 6 6 6 6 6 6 6 6 6
20 19 18 17 16 15 14 14 13 12 11 11 10 9 8 8 8 7 7 7 7 7 7 8 8 8 7 7 7 7 6 6 6 6 6 6 6 6 6 6 5 6 6
20 19 18 17 16 15 14 14 13 12 11 11 10 9 9 8 7 7 7 7 7 7 8 8 8 8 8 7 7 6 6 6 6 6 6 6 6 6 6 5 5 5 6
20 19 18 17 16 15 14 14 13 12 12 11 10 10 9 8 7 7 7 7 7 7 8 8 8 8 8 7 7 6 6 6 5 6 6 6 5 5 5 5 5 5 5
20 19 17 17 16 15 15 14 13 13 12 11 10 10 9 8 8 7 7 7 7 8 8 8 8 8 8 7 7 7 6 6 6 5 5 5 5 5 5 5 5 5 5
20 18 17 17 16 15 15 14 13 13 12 11 10 9 9 8 8 8 7 7 8 7 7 8 8 8 8 7 7 7 6 6 6 5 5 5 5 5 5 5 5 5 5
20 18 17 17 16 15 15 14 13 12 12 11 10 9 9 8 8 8 8 8 8 8 8 8 8 8 8 7 7 7 6 6 6 5 5 5 5 5 5 5 5 5 5
Wind_Speed
6 6 7 7 6 5 5 4 3 2 1 2 2 2 2 3 3 4 7 9 9 8 5 3 4 3 2 3 3 3 4 4 3 3 5 5 8 10 9 9 9 11 13
6 7 8 7 7 7 6 5 4 3 2 1 1 1 0 2 2 3 6 8 9 8 6 4 4 3 3 3 2 2 2 2 2 2 2 4 4 3 7 7 8 9 8
9 9 9 9 7 8 8 6 6 4 2 2 2 2 3 3 4 4 4 6 8 8 6 5 4 4 2 3 3 2 2 3 2 3 3 2 3 4 2 3 5 6 7
7 7 8 9 9 9 7 6 5 4 3 2 1 1 1 2 3 3 4 6 7 7 6 5 4 4 3 3 3 1 1 2 2 2 3 4 3 3 4 3 2 4 6
8 8 9 9 8 7 6 6 5 4 3 2 2 2 3 3 3 3 5 5 5 6 6 5 4 4 3 3 3 2 1 1 2 2 1 2 2 3 4 5 4 3 4
7 7 6 6 5 5 5 5 5 4 3 3 3 3 5 5 5 5 5 5 4 4 5 4 3 3 3 3 3 2 2 2 2 2 2 1 1 1 2 4 4 5 4
7 6 6 6 6 6 5 5 5 5 4 3 4 5 6 5 6 6 5 5 4 4 5 4 3 3 3 4 3 2 2 2 2 3 2 2 3 2 2 3 4 4 3
6 7 7 7 6 6 6 5 5 5 4 5 5 5 5 4 5 5 5 5 4 5 6 5 5 5 4 4 3 2 3 2 3 3 3 3 3 3 3 2 2 4 3
6 7 7 7 6 6 5 6 6 5 6 6 6 6 6 6 6 6 5 5 5 5 6 6 6 5 5 5 4 3 4 3 3 4 4 3 3 3 4 4 3 3 3
5 6 6 5 4 4 3 3 5 6 6 6 6 6 6 6 6 6 7 7 6 6 7 7 7 6 6 5 4 4 4 4 4 4 4 4 3 3 4 4 4 5 4
8 7 5 3 2 2 3 4 5 5 6 7 7 7 7 6 6 6 7 7 7 7 7 8 8 8 8 6 5 6 6 6 6 5 5 6 5 4 4 4 4 5 5
7 4 3 3 3 4 5 6 6 7 8 7 7 7 7 6 6 7 8 7 8 8 8 8 8 9 9 7 7 8 7 7 8 8 7 8 6 6 5 4 5 5 6
6 4 3 4 5 6 6 7 7 8 8 7 7 7 7 7 8 8 8 8 8 9 9 9 9 10 10 9 9 9 9 9 9 9 9 9 8 8 6 6 6 6 6
6 6 6 7 7 7 7 7 8 8 7 6 7 7 8 8 8 8 8 8 8 9 9 9 10 10 10 11 11 10 10 10 10 9 9 10 10 10 9 8 8 7 6
8 8 8 8 7 7 7 7 8 8 7 6 7 9 8 7 7 8 8 8 8 9 9 10 10 10 10 10 11 10 11 11 11 10 10 10 12 13 11 8 8 7 7
10 10 10 9 9 8 8 7 8 8 6 7 8 8 7 7 7 8 8 8 9 9 9 10 11 11 10 12 15 14 11 11 12 12 11 11 13 15 16 17 15 12 10
11 11 10 10 10 9 8 8 8 7 5 7 8 7 7 7 8 8 8 9 9 9 10 10 11 12 13 16 17 18 13 12 12 13 12 12 12 13 11 14 17 16 17
11 11 10 10 8 7 6 6 6 6 6 6 7 7 7 8 8 8 9 9 9 9 10 11 11 12 13 15 16 17 13 12 13 14 14 14 14 12 12 12 12 13 12
12 11 11 9 7 7 7 5 6 5 6 7 7 7 7 8 8 9 10 9 9 10 10 10 11 12 14 15 15 14 9 10 13 13 13 14 15 15 15 14 14 13 12
10 10 8 6 7 7 4 5 6 6 7 7 7 7 7 8 9 10 10 9 9 10 11 11 11 12 13 15 15 13 7 9 10 10 12 15 16 16 16 15 14 15 13
12 9 7 7 7 6 4 6 7 8 8 6 6 7 7 8 9 10 9 9 10 10 10 12 12 11 12 13 14 12 7 8 9 10 10 10 14 17 17 16 14 15 12
11 9 8 8 7 6 6 7 8 7 6 5 6 7 8 8 8 9 10 9 9 10 10 10 11 9 9 9 10 11 10 9 9 10 9 10 13 16 16 14 14 15 14
11 9 9 8 7 6 7 8 8 6 5 5 7 8 8 8 8 9 10 9 8 8 9 8 9 10 8 7 11 11 11 10 8 9 12 13 14 13 12 15 16 14 11
10 8 8 8 8 7 9 10 7 5 5 6 7 7 8 9 9 8 7 8 8 8 9 9 9 9 9 7 5 5 6 7 7 7 9 10 12 11 10 9 11 11 10
8 8 9 10 10 8 9 9 7 5 6 6 7 8 8 8 9 9 8 9 9 9 10 10 10 10 10 8 6 6 5 5 6 6 5 4 4 5 6 7 8 9 10
8 8 9 9 9 8 9 8 7 6 6 6 7 7 7 7 8 9 10 10 12 15 16 16 14 11 13 13 11 10 10 10 9 5 4 5 4 5 5 6 7 8 10
Wind_Direction
204 201 202 199 197 202 202 203 192 195 136 69 57 39 3 345 352 356 3 5 6 7 14 6 353 345 309 291 295 284 282 273 255 265 281 272 252 244 241 237 235 236 234
204 211 212 210 209 211 213 213 211 208 185 135 120 126 341 315 308 322 343 358 2 2 11 7 351 337 305 296 295 274 285 283 244 232 272 306 312 273 244 236 234 237 234
205 210 214 218 218 220 217 214 213 211 196 140 93 47 20 354 342 337 335 337 343 349 356 357 353 346 325 291 284 262 247 277 283 232 229 251 275 312 302 249 242 242 236
216 215 218 222 222 224 216 213 211 210 203 159 155 189 264 283 279 290 299 312 326 335 342 350 358 358 352 321 300 277 246 257 286 289 246 244 251 274 308 310 274 260 250
225 225 224 225 222 214 205 204 202 210 206 191 197 220 254 257 281 293 300 308 315 322 330 337 350 353 349 337 324 314 273 228 253 275 286 281 263 243 258 289 309 310 274
232 231 228 219 217 202 193 188 192 214 214 217 223 227 253 272 289 295 299 303 308 311 319 326 334 330 328 329 327 312 288 254 247 255 253 245 264 276 260 276 299 302 293
227 221 212 206 208 200 192 183 190 217 226 234 245 242 248 255 261 270 275 286 294 296 301 311 307 304 304 307 316 320 303 273 258 254 249 243 240 240 244 266 287 293 294
222 215 209 205 209 203 188 184 197 222 235 241 252 253 250 246 250 254 257 264 265 273 281 288 288 286 292 301 307 299 295 281 271 268 258 253 253 240 232 239 275 301 299
214 210 209 208 207 201 197 199 206 227 239 242 248 255 254 247 253 261 260 261 262 271 275 282 286 285 283 282 284 277 284 289 278 274 269 259 257 248 242 238 233 249 290
207 211 213 214 214 213 216 215 218 229 241 245 246 250 252 251 255 263 268 267 269 270 279 282 283 283 278 269 257 259 265 269 272 268 271 267 264 259 248 240 237 229 238
211 219 226 233 233 242 241 242 242 246 254 253 252 255 260 259 260 261 265 269 274 276 276 277 280 282 281 271 253 250 250 250 258 264 263 267 268 265 256 243 237 235 230
222 233 244 255 256 257 259 256 255 253 254 254 253 254 260 265 265 265 268 269 273 276 276 278 278 278 278 271 265 266 261 246 248 253 253 260 265 261 258 246 238 236 232
235 247 252 250 253 257 261 260 257 256 260 258 253 257 262 262 262 265 269 270 271 276 279 277 277 278 277 274 270 267 267 258 249 244 243 249 251 256 254 248 244 240 239
236 237 246 250 253 255 257 260 264 262 262 257 253 257 260 259 262 267 270 269 270 274 276 275 274 274 275 275 273 270 269 268 261 249 240 240 240 244 248 248 243 239 239
236 235 239 247 253 258 262 262 266 268 261 255 256 258 262 264 266 269 271 272 272 275 273 276 277 274 274 271 267 264 266 265 267 262 250 242 239 238 238 240 238 233 232
238 239 240 245 248 249 255 262 266 267 260 254 259 265 268 269 270 271 275 278 278 279 278 277 277 276 275 271 269 269 267 265 265 266 262 252 251 248 244 242 239 231 229
232 235 237 236 239 241 243 251 258 266 262 259 266 270 269 271 272 276 279 280 282 281 281 279 277 276 273 269 271 272 270 264 262 261 261 262 255 241 235 238 243 244 238
230 234 235 235 237 235 238 246 259 263 264 267 272 273 271 273 276 277 279 279 280 280 282 282 279 278 277 272 269 272 272 264 261 257 255 255 257 248 233 233 237 240 243
221 227 226 223 227 233 235 244 260 264 267 269 271 272 273 277 280 281 281 281 281 283 284 284 282 280 281 278 274 272 272 265 263 260 255 251 252 247 232 233 237 239 243
225 225 220 211 225 236 223 232 254 262 264 265 268 273 275 276 279 280 281 280 279 282 286 285 282 278 279 278 276 275 268 267 268 265 259 251 247 244 234 234 234 236 236
222 215 204 209 223 219 196 227 247 255 257 264 271 276 276 277 279 279 279 281 284 285 286 286 285 279 273 275 276 275 264 260 268 268 264 256 242 239 237 231 232 230 225
218 202 199 217 221 203 198 225 244 250 256 262 272 278 281 284 287 283 285 284 282 286 289 289 290 285 274 267 273 274 268 259 261 265 265 260 249 242 238 234 229 222 218
210 194 196 214 222 207 201 224 241 241 248 261 273 282 288 288 285 282 284 289 285 283 287 288 290 292 287 274 267 272 276 275 267 265 263 259 253 247 242 234 223 217 219
203 189 189 210 226 218 214 225 233 231 240 261 276 285 291 294 292 285 280 282 285 286 288 288 289 292 290 283 276 276 281 285 284 281 275 267 256 244 237 230 223 216 214
191 181 193 211 225 222 224 230 229 223 240 261 276 286 287 288 294 292 283 279 273 267 273 282 281 284 286 277 261 272 282 285 286 293 280 268 258 241 231 224 215 208 207
183 187 200 212 223 222 229 232 225 217 232 262 277 282 288 291 294 299 303 281 267 272 265 259 259 265 259 268 275 277 280 282 286 281 267 270 268 254 239 223 212 206 206
Height
1531 1532 1534 1535 1536 1536 1537 1538 1538 1538 1538 1537 1536 1534 1533 1531 1528 1526 1523 1521 1520 1519 1518 1517 1517 1517 1516 1516 1515 1514 1513 1512 1511 1509 1508 1508 1507 1507 1506 1506 1507 1508 1511
1530 1531 1533 1534 1535 1535 1536 1537 1537 1537 1536 1535 1534 1532 1530 1528 1526 1523 1521 1519 1517 1515 1514 1514 1513 1513 1513 1513 1513 1511 1510 1509 1508 1507 1505 1504 1504 1502 1502 1502 1502 1504 1506
1529 1530 1531 1532 1533 1534 1535 1535 1535 1535 1534 1533 1531 1530 1528 1526 1524 1521 1519 1516 1514 1513 1511 1510 1510 1509 1509 1509 1509 1508 1507 1506 1505 1504 1504 1503 1501 1500 1500 1499 1500 1500 1501
1528 1529 1530 1531 1531 1532 1533 1533 1533 1533 1532 1531 1529 1527 1525 1523 1521 1518 1516 1514 1512 1510 1509 1507 1506 1505 1505 1505 1505 1505 1504 1504 1503 1502 1502 1502 1501 1500 1498 1498 1498 1498 1498
1525 1527 1528 1529 1530 1530 1531 1531 1531 1530 1529 1528 1526 1525 1523 1521 1518 1516 1514 1511 1509 1508 1506 1504 1503 1502 1501 1501 1501 1501 1501 1501 1500 1500 1499 1498 1498 1497 1497 1494 1494 1495 1495
1523 1524 1525 1526 1527 1528 1528 1528 1528 1527 1526 1525 1524 1522 1520 1518 1515 1513 1510 1508 1506 1504 1502 1500 1499 1498 1497 1497 1497 1497 1497 1497 1497 1497 1496 1496 1495 1494 1494 1492 1491 1490 1491
1520 1521 1523 1524 1524 1525 1525 1525 1525 1524 1523 1522 1521 1519 1517 1515 1512 1510 1507 1505 1502 1500 1498 1497 1495 1494 1493 1492 1492 1492 1492 1492 1492 1493 1493 1493 1493 1492 1491 1490 1488 1487 1487
1517 1518 1520 1521 1522 1522 1522 1522 1522 1521 1520 1519 1517 1516 1514 1511 1509 1507 1504 1501 1499 1497 1495 1493 1491 1490 1489 1488 1487 1487 1487 1487 1487 1488 1488 1489 1489 1489 1488 1488 1487 1485 1484
1514 1516 1518 1519 1519 1520 1520 1519 1519 1518 1517 1515 1514 1512 1510 1508 1506 1503 1501 1498 1496 1494 1492 1490 1488 1486 1485 1484 1482 1482 1482 1482 1482 1482 1483 1483 1484 1484 1484 1484 1484 1484 1482
1513 1514 1516 1517 1517 1517 1517 1517 1516 1515 1513 1512 1510 1509 1507 1504 1502 1500 1497 1495 1493 1490 1488 1486 1485 1483 1481 1480 1478 1477 1477 1476 1476 1476 1476 1477 1478 1478 1479 1480 1480 1480 1480
1511 1513 1514 1515 1515 1515 1515 1514 1513 1511 1510 1508 1507 1505 1503 1501 1498 1496 1494 1491 1489 1487 1484 1482 1480 1479 1477 1476 1474 1473 1472 1471 1470 1470 1470 1470 1471 1472 1473 1474 1475 1476 1476
1510 1512 1513 1513 1513 1513 1512 1511 1509 1508 1506 1504 1503 1501 1499 1497 1494 1492 1489 1487 1484 1482 1480 1477 1475 1473 1472 1470 1469 1468 1467 1465 1465 1464 1464 1464 1464 1465 1466 1467 1468 1470 1471
1509 1510 1510 1511 1511 1510 1509 1507 1506 1504 1502 1500 1498 1496 1495 1492 1490 1487 1484 1482 1479 1476 1474 1471 1469 1467 1465 1464 1463 1462 1460 1459 1458 1458 1457 1457 1458 1458 1459 1460 1461 1463 1465
1507 1508 1508 1508 1508 1507 1505 1503 1502 1500 1498 1496 1494 1492 1490 1487 1485 1482 1479 1476 1473 1470 1467 1465 1462 1460 1458 1457 1456 1455 1454 1453 1452 1451 1451 1450 1450 1451 1452 1453 1454 1456 1458
1504 1505 1505 1505 1505 1503 1501 1499 1497 1496 1494 1491 1489 1487 1485 1482 1479 1476 1473 1470 1467 1464 1461 1458 1455 1453 1451 1449 1448 1447 1446 1445 1445 1444 1444 1444 1443 1444 1445 1446 1447 1449 1451
1501 1502 1502 1502 1501 1499 1497 1495 1493 1491 1489 1487 1484 1482 1479 1476 1473 1470 1467 1464 1460 1457 1454 1451 1448 1446 1444 1443 1441 1440 1439 1438 1437 1437 1436 1436 1436 1436 1437 1439 1440 1442 1444
1498 1498 1498 1497 1496 1495 1493 1491 1489 1487 1484 1482 1479 1477 1474 1470 1467 1464 1461 1457 1454 1450 1447 1444 1442 1439 1438 1436 1435 1434 1432 1431 1430 1429 1429 1428 1429 1429 1429 1430 1432 1434 1436
1493 1494 1493 1492 1491 1490 1489 1487 1485 1482 1479 1477 1474 1471 1468 1464 1461 1458 1455 1451 1448 1444 1441 1438 1436 1433 1431 1430 1428 1427 1425 1423 1422 1421 1421 1420 1420 1421 1421 1422 1423 1425 1428
1488 1488 1488 1487 1487 1486 1484 1482 1480 1478 1475 1471 1468 1465 1462 1458 1455 1452 1449 1445 1442 1438 1435 1433 1430 1427 1425 1424 1422 1420 1417 1415 1414 1413 1412 1411 1411 1412 1413 1413 1414 1415 1418
1483 1483 1483 1483 1482 1482 1480 1478 1476 1473 1470 1466 1463 1459 1456 1452 1449 1446 1442 1439 1436 1433 1430 1427 1425 1422 1419 1417 1415 1413 1410 1407 1406 1404 1403 1402 1402 1403 1404 1404 1404 1406 1409
1477 1478 1479 1479 1479 1478 1476 1474 1471 1468 1465 1461 1457 1454 1450 1447 1443 1440 1437 1434 1431 1427 1425 1422 1419 1416 1414 1411 1408 1406 1403 1400 1398 1396 1394 1393 1393 1393 1394 1395 1396 1398 1403
1472 1473 1474 1474 1474 1473 1471 1468 1466 1463 1459 1456 1452 1448 1445 1441 1438 1435 1432 1429 1426 1422 1419 1417 1414 1411 1408 1405 1402 1399 1397 1394 1391 1389 1387 1386 1385 1385 1386 1387 1388 1391 1395
1466 1468 1468 1469 1469 1468 1466 1464 1461 1458 1455 1451 1447 1443 1440 1437 1433 1430 1427 1424 1421 1418 1414 1411 1408 1405 1402 1399 1396 1393 1390 1388 1385 1383 1381 1379 1378 1378 1378 1379 1381 1384 1387
1460 1462 1463 1464 1464 1463 1461 1459 1456 1453 1450 1446 1443 1439 1435 1432 1429 1426 1423 1419 1416 1413 1410 1406 1403 1400 1397 1394 1390 1388 1385 1383 1380 1378 1375 1374 1372 1371 1371 1372 1374 1376 1379
1454 1457 1458 1459 1459 1459 1457 1455 1452 1449 1445 1442 1438 1435 1431 1428 1425 1422 1419 1415 1412 1409 1405 1402 1399 1395 1392 1389 1386 1383 1380 1378 1376 1373 1371 1369 1367 1366 1365 1366 1368 1370 1373
1449 1452 1454 1455 1455 1454 1452 1450 1448 1445 1441 1438 1435 1431 1428 1424 1421 1417 1414 1411 1408 1404 1401 1398 1395 1391 1388 1385 1382 1379 1376 1373 1372 1370 1367 1366 1364 1362 1361 1362 1363 1365 1368